[[{"header":{"parameterUnit":"m.s-1","parameterCategory":1,"la1":30.2991,"la2":30.254,"lo1":-89.0895,"lo2":-89.0444,"dy":0.0017,"dx":0.0017,"nx":28,"ny":28,"refTime":"2024-08-24T21:00:00:Z","depth":0,"parameterNumber":2,"parameterNumberName":"U-component_of_WINDS"},"data":[0,0,0,0,0,0,0,0,0,0,0,0,0,0,0,0,0,0,0,0,0,0,0,0,0,0,0,0,0,0,0,0,0,0,0,0,0,0,0,0,0,0,0,0,0,0,0,0,0,0,0,0,0,0,0,0,0,0,-4.0606,-4.0607,0,-4.069,-4.0691,-4.0692,-4.0583,-4.0579,-4.0575,-4.0571,-4.0656,-4.0662,-4.0668,0,0,0,0,0,0,0,0,0,0,0,0,0,-4.0347,-4.0353,-4.0605,-4.0607,-4.0608,-4.069,-4.0691,-4.0692,-4.0584,-4.0579,-4.0574,-4.0569,-4.0654,-4.0661,-4.0668,0,0,0,0,0,0,0,0,0,0,0,0,0,-4.0449,-4.0355,-4.0605,-4.0563,-4.056,-4.069,-4.0691,-4.0693,-4.0585,-4.0579,-4.0573,-4.0567,-4.0652,-4.0661,-4.0669,-4.0844,0,0,-4.0697,-4.0701,0,0,0,0,0,0,0,0,-4.0443,-4.0458,-4.0568,-4.0567,-4.0563,-4.062,-4.0631,-4.0743,-4.0586,-4.0575,-4.0571,-4.0564,-4.0649,-4.0658,-4.0687,-4.0847,-4.0851,-4.0698,-4.0703,-4.0707,-4.0709,0,0,0,0,0,0,0,-4.0436,-4.0454,-4.0639,-4.057,-4.0567,-4.054,-4.0547,-4.0652,-4.0644,-4.0576,-4.0568,-4.058,-4.0646,-4.0678,-4.0688,-4.0852,-4.0697,-4.0705,-4.0711,-4.0714,-4.1159,-4.1165,0,0,0,0,0,0,-4.0434,-4.0449,-4.0636,-4.0641,-4.0487,-4.0549,-4.0558,-4.0608,-4.0643,-4.0643,-4.0585,-4.0574,-4.0666,-4.0677,-4.069,-4.0895,-4.0707,-4.0715,-4.072,-4.1152,-4.116,-4.1167,0,0,0,0,0,0,-4.0429,-4.0452,-4.0633,-4.0543,-4.0564,-4.056,-4.0617,-4.0613,-4.0644,-4.065,-4.0648,-4.0619,-4.0662,-4.0678,-4.0806,-4.0896,-4.0719,-4.0727,-4.1145,-4.1155,-4.1164,-4.1306,0,0,0,0,0,0,-4.0422,-4.0451,-4.0518,-4.0545,-4.0569,-4.0748,-4.0623,-4.0619,-4.066,-4.0647,-4.0681,-4.0681,-4.0658,-4.0793,-4.0815,-4.0905,-4.0734,-4.1136,-4.1149,-4.116,-4.1294,-4.132,-4.1342,0,0,0,0,0,-4.0413,-4.0554,-4.0522,-4.0545,-4.0653,-4.0754,-4.0767,-4.0738,-4.0668,-4.0734,-4.0738,-4.068,-4.0884,-4.0807,-4.0831,-4.0925,-4.1131,-4.1145,-4.116,-4.1283,-4.1315,-4.1342,0,0,0,0,0,0,-4.0537,-4.0557,-4.0521,-4.0675,-4.0714,-4.0735,-4.0818,-4.0774,-4.0832,-4.0818,-4.0779,-4.0788,-4.0924,-4.0938,-4.0853,-4.1095,-4.0995,-4.1015,-4.1081,-4.1111,-4.1135,-4.1128,-4.0742,0,0,0,0,0,-4.0582,-4.0663,-4.0676,-4.0811,-4.0832,-4.0822,-4.0865,-4.084,-4.0878,-4.0893,-4.0906,-4.0944,-4.1016,-4.1065,-4.1132,-4.1296,-4.13,-4.1372,-4.1397,-4.1417,-4.1434,-4.152,-4.1551,-4.1215,-4.1215,-4.1214,0,0,-4.0676,-4.0697,-4.0751,-4.0836,-4.0863,-4.0947,-4.0836,-4.093,-4.0991,-4.0907,-4.1028,-4.104,-4.108,-4.1226,-4.1291,-4.1242,-4.1528,-4.1435,-4.1451,-4.1457,-4.1538,-4.157,-4.1598,-4.1224,-4.1223,-4.1221,0,0,-4.0889,-4.0915,-4.1029,-4.1058,-4.11,-4.1092,-4.112,-4.1148,-4.1152,-4.1274,-4.1212,-4.1285,-4.1411,-4.1441,-4.1473,-4.1699,-4.1647,-4.1722,-4.1848,-4.1933,-4.1959,-4.1982,-4.2061,-4.209,-4.1739,-4.174,-4.174,0,-4.1,-4.1125,-4.1093,-4.1191,-4.123,-4.1158,-4.1273,-4.1303,-4.1365,-4.1393,-4.1336,-4.1492,-4.1514,-4.1666,-4.1721,-4.1751,-4.178,-4.1717,-4.1958,-4.1981,-4.2002,-4.2077,-4.2107,-4.1748,-4.1747,-4.1747,-4.1746,0,-4.1259,-4.1346,-4.1433,-4.1495,-4.1544,-4.165,-4.1633,-4.1686,-4.1657,-4.1656,-4.178,-4.1804,-4.1874,-4.1908,-4.1881,-4.2057,-4.2024,-4.1964,-4.1863,-4.2044,-4.2113,-4.2141,-4.1761,-4.1758,-4.1755,-4.1753,0,0,-4.1551,-4.1594,-4.1626,-4.1653,-4.1694,-4.176,-4.1863,-4.1932,-4.1977,-4.2023,-4.2106,-4.2215,-4.2159,-4.2196,-4.2171,-4.2246,-4.2421,-4.2176,-4.2176,-4.2219,-4.2614,-4.2657,-4.2691,-4.2388,-4.2393,-4.2397,-4.261,0,-4.1763,-4.194,-4.1915,-4.2085,-4.2164,-4.2098,-4.2187,-4.2221,-4.2223,-4.229,-4.229,-4.2367,-4.2289,-4.231,-4.2381,-4.2385,-4.2499,-4.2369,-4.2464,-4.2467,-4.2454,-4.2728,-4.2774,-4.2974,-4.2637,-4.2642,-4.2645,0,-4.2034,-4.2089,-4.2268,-4.2296,-4.2328,-4.2409,-4.2469,-4.2535,-4.2572,-4.2567,-4.2609,-4.2571,-4.2672,-4.2571,-4.2709,-4.2621,-4.2658,-4.2666,-4.2673,-4.2679,-4.2566,-4.2739,-4.3037,-4.3066,-4.2688,-4.2684,-4.2681,0,-4.2227,-4.2346,-4.2468,-4.2493,-4.2529,-4.2587,-4.2605,-4.2636,-4.2679,-4.2732,-4.2759,-4.2824,-4.2859,-4.2909,-4.2889,-4.2817,-4.3031,-4.2928,-4.3029,-4.3029,-4.3075,-4.3072,-4.338,-4.3103,-4.3102,-4.3102,-4.3101,0,-4.2465,-4.2576,-4.2555,-4.2629,-4.2752,-4.2721,-4.2843,-4.2853,-4.2882,-4.2956,-4.2903,-4.2974,-4.2944,-4.3013,-4.2998,-4.3114,-4.3131,-4.3129,-4.3123,-4.3133,-4.3133,-4.3155,-4.314,-4.311,-4.3108,-4.3106,-4.3105,0,-4.27,-4.2691,-4.2819,-4.2843,-4.2851,-4.294,-4.296,-4.303,-4.3027,-4.3123,-4.3143,-4.3139,-4.3217,-4.3203,-4.3289,-4.3279,-4.3424,-4.3402,-4.3411,-4.3405,-4.3506,-4.3496,-4.3838,-4.388,-4.3577,-4.358,-4.3583,0,-4.2852,-4.2936,-4.2969,-4.3016,-4.3038,-4.3114,-4.3157,-4.313,-4.3178,-4.3227,-4.329,-4.3364,-4.3421,-4.355,-4.3554,-4.362,-4.3598,-4.3713,-4.3607,-4.3613,-4.3597,-4.3591,-4.3599,-4.3733,-4.3737,-4.374,-4.3742,0,-4.3122,-4.3113,-4.3178,-4.3242,-4.3295,-4.3344,-4.3387,-4.3428,-4.3405,-4.3461,-4.3541,-4.3585,-4.3674,-4.3747,-4.3808,-4.3825,-4.378,-4.3776,-4.3802,-4.3811,-4.3812,-4.3811,-4.3466,-4.3767,-4.3765,-4.3763,-4.3762,-4.3761,-4.3319,-4.339,-4.3424,-4.3498,-4.3528,-4.357,-4.3636,-4.3642,-4.3708,-4.3778,-4.3758,-4.3849,-4.3883,-4.3961,-4.3985,-4.4055,-4.4011,-4.405,-4.406,-4.4069,-4.408,-4.3803,-4.4066,-4.4065,-4.4065,-4.4064,-4.4063,0,-4.3584,-4.3603,-4.3671,-4.3734,-4.3792,-4.3745,-4.3791,-4.3842,-4.3922,-4.3959,-4.4016,-4.4108,-4.4179,-4.4189,-4.4256,-4.4309,-4.429,-4.4328,-4.4322,-4.4327,-4.4116,-4.4086,-4.4342,-4.4342,-4.4342,-4.4342,-4.4342,-4.4342,-4.3729,-4.3846,-4.3841,-4.3973,-4.399,-4.4079,-4.4108,-4.4146,-4.4175,-4.4279,-4.4338,-4.4344,-4.437,-4.4438,-4.4501,-4.4502,-4.4528,-4.4574,-4.4567,-4.437,-4.4342,-4.4315,-4.4286,-4.458,-4.4581,-4.4771,-4.4773,-4.4774]},{"header":{"parameterUnit":"m.s-1","parameterCategory":1,"la1":30.2991,"la2":30.254,"lo1":-89.0895,"lo2":-89.0444,"dy":0.0017,"dx":0.0017,"nx":28,"ny":28,"refTime":"2024-08-24T21:00:00:Z","depth":0,"parameterNumber":3,"parameterNumberName":"V-component_of_WINDS"},"data":[0,0,0,0,0,0,0,0,0,0,0,0,0,0,0,0,0,0,0,0,0,0,0,0,0,0,0,0,0,0,0,0,0,0,0,0,0,0,0,0,0,0,0,0,0,0,0,0,0,0,0,0,0,0,0,0,0,0,-0.1059,-0.106,0,-0.1098,-0.1099,-0.1099,-0.1151,-0.1151,-0.1152,-0.1153,-0.1195,-0.1195,-0.1196,0,0,0,0,0,0,0,0,0,0,0,0,0,-0.1029,-0.103,-0.1059,-0.106,-0.106,-0.1098,-0.1099,-0.1099,-0.115,-0.1152,-0.1153,-0.1153,-0.1195,-0.1195,-0.1196,0,0,0,0,0,0,0,0,0,0,0,0,0,-0.1053,-0.103,-0.1059,-0.109,-0.1094,-0.1098,-0.1099,-0.11,-0.115,-0.1152,-0.1153,-0.1154,-0.1195,-0.1195,-0.1196,-0.1174,0,0,-0.1197,-0.1197,0,0,0,0,0,0,0,0,-0.1051,-0.1054,-0.1085,-0.1088,-0.1092,-0.1121,-0.1104,-0.1124,-0.115,-0.1129,-0.1153,-0.1155,-0.1169,-0.1172,-0.1177,-0.1176,-0.1177,-0.1197,-0.1197,-0.1198,-0.1198,0,0,0,0,0,0,0,-0.105,-0.1053,-0.1075,-0.1086,-0.109,-0.1102,-0.1107,-0.1108,-0.1142,-0.1131,-0.1135,-0.1138,-0.1171,-0.1176,-0.1178,-0.1178,-0.1197,-0.1198,-0.1198,-0.1198,-0.1159,-0.1158,0,0,0,0,0,0,-0.1043,-0.1051,-0.1074,-0.1076,-0.1074,-0.1102,-0.1107,-0.111,-0.1142,-0.1148,-0.1137,-0.1141,-0.1175,-0.1177,-0.118,-0.1155,-0.1198,-0.1198,-0.1198,-0.116,-0.1159,-0.1157,0,0,0,0,0,0,-0.1043,-0.1045,-0.1072,-0.1064,-0.1069,-0.1101,-0.1104,-0.111,-0.1115,-0.1147,-0.1153,-0.1136,-0.1176,-0.1179,-0.1174,-0.1157,-0.1198,-0.1199,-0.1162,-0.116,-0.1158,-0.1106,0,0,0,0,0,0,-0.1041,-0.1044,-0.1036,-0.1064,-0.1069,-0.1066,-0.1103,-0.111,-0.1116,-0.112,-0.1147,-0.1153,-0.1177,-0.1173,-0.1175,-0.1159,-0.1199,-0.1164,-0.1161,-0.1159,-0.1109,-0.1102,-0.1096,0,0,0,0,0,-0.104,-0.1021,-0.1036,-0.1038,-0.106,-0.1065,-0.1068,-0.1096,-0.1114,-0.1106,-0.1126,-0.1152,-0.1159,-0.1172,-0.1174,-0.1158,-0.1165,-0.1162,-0.1159,-0.1112,-0.1103,-0.1096,0,0,0,0,0,0,-0.0991,-0.1025,-0.1042,-0.1031,-0.1044,-0.1073,-0.1064,-0.1086,-0.1095,-0.1099,-0.1134,-0.1139,-0.113,-0.1144,-0.1158,-0.1138,-0.1165,-0.1163,-0.1129,-0.1121,-0.1115,-0.1112,-0.12,0,0,0,0,0,-0.0979,-0.098,-0.101,-0.0997,-0.1003,-0.1032,-0.1035,-0.1055,-0.1071,-0.1077,-0.1097,-0.1112,-0.1117,-0.112,-0.1127,-0.1111,-0.1117,-0.1101,-0.1094,-0.1089,-0.1086,-0.1077,-0.107,-0.1147,-0.1147,-0.1147,0,0,-0.0954,-0.0973,-0.0971,-0.0987,-0.1,-0.1,-0.1037,-0.1036,-0.1036,-0.1077,-0.1074,-0.1088,-0.1107,-0.1096,-0.1092,-0.1107,-0.1066,-0.1085,-0.108,-0.1081,-0.1073,-0.1066,-0.106,-0.1145,-0.1146,-0.1146,0,0,-0.0908,-0.0923,-0.0913,-0.0925,-0.0943,-0.0963,-0.096,-0.0986,-0.0997,-0.0993,-0.1024,-0.1025,-0.1034,-0.1045,-0.1052,-0.1008,-0.1032,-0.101,-0.0976,-0.0967,-0.0961,-0.0956,-0.0939,-0.0933,-0.1007,-0.1007,-0.1007,0,-0.0875,-0.0876,-0.0906,-0.0902,-0.0908,-0.0944,-0.0934,-0.0944,-0.0964,-0.0967,-0.0983,-0.0994,-0.1009,-0.1001,-0.099,-0.0995,-0.0992,-0.1007,-0.0959,-0.0954,-0.095,-0.0935,-0.0928,-0.1004,-0.1004,-0.1004,-0.1005,0,-0.0834,-0.0834,-0.0824,-0.0841,-0.0846,-0.0839,-0.0867,-0.0868,-0.0887,-0.0905,-0.09,-0.0919,-0.093,-0.0929,-0.0949,-0.0923,-0.0932,-0.0953,-0.0982,-0.0939,-0.0925,-0.092,-0.1,-0.1001,-0.1002,-0.1002,0,0,-0.076,-0.0792,-0.0788,-0.0795,-0.0817,-0.0818,-0.0813,-0.0822,-0.0822,-0.0834,-0.083,-0.0835,-0.0855,-0.0862,-0.0883,-0.0875,-0.0838,-0.0898,-0.0899,-0.0885,-0.081,-0.0793,-0.0786,-0.0854,-0.0853,-0.0852,-0.0808,0,-0.0718,-0.071,-0.0735,-0.0721,-0.0721,-0.0754,-0.0749,-0.0762,-0.0778,-0.078,-0.0798,-0.0801,-0.0827,-0.0831,-0.0825,-0.0844,-0.0823,-0.0847,-0.085,-0.0849,-0.0844,-0.0779,-0.0762,-0.072,-0.0803,-0.0802,-0.0801,0,-0.0669,-0.0677,-0.0662,-0.0683,-0.0684,-0.0679,-0.0689,-0.0691,-0.0706,-0.0718,-0.0725,-0.0749,-0.0744,-0.0771,-0.0766,-0.0781,-0.0784,-0.0793,-0.0792,-0.0793,-0.0823,-0.0778,-0.0707,-0.07,-0.0793,-0.0794,-0.0794,0,-0.0615,-0.0622,-0.0614,-0.0619,-0.0645,-0.064,-0.065,-0.0667,-0.067,-0.0679,-0.0681,-0.0689,-0.0694,-0.0699,-0.0724,-0.0741,-0.0714,-0.0744,-0.0724,-0.0723,-0.0717,-0.0717,-0.0645,-0.0719,-0.0719,-0.0719,-0.0719,0,-0.0565,-0.0555,-0.059,-0.0585,-0.0573,-0.0602,-0.059,-0.0604,-0.0618,-0.0616,-0.0646,-0.0643,-0.0676,-0.0677,-0.0696,-0.0687,-0.0689,-0.0699,-0.0704,-0.0696,-0.0694,-0.0698,-0.0701,-0.0717,-0.0718,-0.0718,-0.0718,0,-0.0503,-0.0527,-0.052,-0.0543,-0.0549,-0.054,-0.056,-0.0556,-0.0573,-0.057,-0.0571,-0.0598,-0.06,-0.0625,-0.0633,-0.0646,-0.063,-0.0641,-0.0624,-0.0628,-0.0606,-0.0607,-0.0533,-0.0524,-0.0604,-0.0603,-0.0603,0,-0.047,-0.0463,-0.0485,-0.0485,-0.0494,-0.0495,-0.0498,-0.0525,-0.0528,-0.0543,-0.0537,-0.0541,-0.0546,-0.0548,-0.0568,-0.0574,-0.0586,-0.0559,-0.0587,-0.0578,-0.0584,-0.0584,-0.0583,-0.0553,-0.0552,-0.0551,-0.0551,0,-0.0409,-0.042,-0.0423,-0.043,-0.0433,-0.044,-0.0448,-0.0447,-0.0477,-0.0478,-0.048,-0.0484,-0.0491,-0.0495,-0.0504,-0.0515,-0.0537,-0.0542,-0.0537,-0.0529,-0.0519,-0.0523,-0.0608,-0.0543,-0.0544,-0.0545,-0.0545,-0.0545,-0.036,-0.0354,-0.0368,-0.0371,-0.038,-0.0387,-0.0384,-0.04,-0.0402,-0.0409,-0.0426,-0.0425,-0.0439,-0.0453,-0.0461,-0.0461,-0.0475,-0.0469,-0.0467,-0.0465,-0.046,-0.0519,-0.0463,-0.0463,-0.0463,-0.0464,-0.0464,0,-0.0299,-0.0309,-0.0311,-0.0322,-0.0323,-0.0344,-0.0354,-0.0354,-0.0352,-0.0363,-0.0367,-0.0368,-0.0372,-0.0391,-0.0397,-0.0392,-0.0403,-0.0393,-0.0393,-0.0395,-0.0448,-0.0451,-0.0384,-0.0384,-0.0384,-0.0384,-0.0384,-0.0384,-0.0268,-0.0258,-0.0271,-0.0266,-0.0277,-0.0276,-0.028,-0.0286,-0.0295,-0.0295,-0.0298,-0.031,-0.0324,-0.033,-0.0334,-0.0339,-0.034,-0.0326,-0.0335,-0.0384,-0.0392,-0.0399,-0.0402,-0.0326,-0.0326,-0.0282,-0.0282,-0.0281]}]]